Stations météo

réclame
Mon MeteoGroup
Gottfrieding, Allemagne (10872): Température de l'air & dewpoint: 17.10.2018 07:00:00 - 23.10.2018 07:00:00 (CEST)Gottfrieding, Allemagne (10872): Température de l'air 5cm & Température de l'air -5cm: 17.10.2018 07:00:00 - 23.10.2018 07:00:00 (CEST)Gottfrieding, Allemagne (10872): Température de l'air -20cm & Température de l'air -100cm: 17.10.2018 07:00:00 - 23.10.2018 07:00:00 (CEST)Gottfrieding, Allemagne (10872): Vitesse du vent & gusts: 17.10.2018 07:00:00 - 23.10.2018 07:00:00 (CEST)Gottfrieding, Allemagne (10872): Direction du vent: 17.10.2018 07:00:00 - 23.10.2018 07:00:00 (CEST)Gottfrieding, Allemagne (10872): reduced air pressure: 17.10.2018 07:00:00 - 23.10.2018 07:00:00 (CEST)Gottfrieding, Allemagne (10872): visibility: 17.10.2018 07:00:00 - 23.10.2018 07:00:00 (CEST)Gottfrieding, Allemagne (10872): Ensoleillement: 17.10.2018 07:00:00 - 23.10.2018 07:00:00 (CEST)Gottfrieding, Allemagne (10872): Quantités de précipitations: 17.10.2018 07:00:00 - 23.10.2018 07:00:00 (CEST)
Date & Time tt [°C] td [°C] tt 5cm [°C] tt -5cm [°C] tt -20cm [°C] tt -100cm [°C] ff [km/h] ff [knt] fx [km/h] fx [knt] dd ppp [hPa] vv [km] sd [min] rr [mm]
23.10.2018 07:00:00 7,0 4,4 6,1 10,0 12,0 14,0 9 5 15 8 W 1029,0 19 0 0,0
23.10.2018 06:00:00 7,6 4,7 7,3 10,3 12,0 14,0 11 6 18 10 W 1029,7 24 0 0,0
23.10.2018 05:00:00 8,0 5,4 7,8 10,5 12,1 14,0 11 6 16 9 W 1029,8 19 0 0,0
23.10.2018 04:00:00 8,2 6,0 7,9 10,6 12,1 14,0 12 6 16 9 W 1029,8 16 0 0,0
23.10.2018 03:00:00 8,3 6,5 8,1 10,9 12,1 14,1 10 5 17 9 WNW 1030,0 11 0 0,0
23.10.2018 02:00:00 9,1 7,6 9,0 11,0 12,2 14,1 9 5 16 9 WNW 1030,0 8 0 0,0
23.10.2018 01:00:00 9,6 8,0 9,3 11,1 12,2 14,1 9 5 16 9 WNW 1030,2 6 0 0,0
23.10.2018 00:00:00 9,9 7,8 9,7 11,1 12,3 14,1 10 6 15 8 WNW 1030,0 7 0 0,0
22.10.2018 23:00:00 10,0 6,9 9,2 11,2 12,3 14,1 8 4 25 14 W 1030,0 12 0 0,0
22.10.2018 22:00:00 11,1 4,4 10,1 11,3 12,4 14,1 11 6 18 10 WNW 1029,6 23 0 0,0
22.10.2018 21:00:00 9,9 4,0 8,7 11,4 12,4 14,1 9 5 14 8 WSW 1029,2 25 0 0,0
22.10.2018 20:00:00 10,5 3,4 9,2 12,0 12,4 14,1 10 5 13 7 WSW 1028,4 32 0 0,0
22.10.2018 19:00:00 10,6 3,0 7,0 12,5 12,3 14,1 8 4 12 7 W 1028,3 36 0 0,0
22.10.2018 18:00:00 11,1 3,1 8,1 13,8 12,1 14,1 10 5 21 12 W 1027,8 25 60 0,0
22.10.2018 17:00:00 13,9 2,8 14,2 15,4 11,9 14,1 11 6 16 8 NW 1027,0 27 60 0,0
22.10.2018 16:00:00 14,0 2,5 15,7 16,3 11,6 14,1 10 6 16 9 NW 1026,6 24 60 0,0
22.10.2018 15:00:00 14,1 3,0 16,4 16,4 11,2 14,2 6 3 19 10 N 1026,7 23 60 0,0
22.10.2018 14:00:00 13,3 2,9 17,0 15,7 11,0 14,2 5 3 11 6 SE 1027,1 22 60 0,0
22.10.2018 13:00:00 11,7 2,5 15,0 14,1 10,8 14,2 4 2 13 7 E 1027,7 21 60 0,0
22.10.2018 12:00:00 10,5 2,7 12,9 12,0 10,7 14,2 8 4 11 6 ESE 1028,2 24 60 0,0
22.10.2018 11:00:00 8,1 3,1 10,5 9,6 10,8 14,2 5 3 8 5 ESE 1029,0 17 60 0,0
22.10.2018 10:00:00 4,6 1,7 4,6 7,3 10,9 14,2 0 0 6 3 N 1029,4 12 60 0,0
22.10.2018 09:00:00 0,2 -0,1 0,0 5,8 11,1 14,2 3 2 5 3 SSE 1029,8 0,7 24 0,0
22.10.2018 08:00:00 -1,4 -1,8 -2,3 5,5 11,3 14,2 0 0 4 2 N 1029,4 0,1 0 0,0
22.10.2018 07:00:00 -1,2 -1,7 -3,2 5,8 11,5 14,2 0 0 3 2 N 1029,0 4,7 0 0,0
22.10.2018 06:00:00 -0,4 -0,7 -3,2 6,2 11,7 14,2 2 1 4 2 S 1028,9 7 0 0,0
22.10.2018 05:00:00 -0,3 -0,8 -3,1 6,5 11,9 14,2 0 0 5 3 N 1028,8 3,7 0 0,0
22.10.2018 04:00:00 -0,5 -1,5 -3,0 7,0 12,2 14,2 2 1 4 2 ESE 1029,0 8 0 0,0
22.10.2018 03:00:00 0,6 0,3 -2,0 7,4 12,4 14,2 0 0 3 2 N 1029,2 9 0 0,0
22.10.2018 02:00:00 1,0 0,5 -1,7 7,9 12,6 14,2 0 0 5 3 N 1029,3 9 0 0,0
22.10.2018 01:00:00 2,0 1,2 -1,2 8,5 12,8 14,2 2 1 5 3 W 1029,2 8 0 0,0
22.10.2018 00:00:00 3,3 1,9 0,1 9,3 12,9 14,2 3 2 10 5 NNW 1029,2 16 0 0,0
21.10.2018 23:00:00 4,8 3,3 2,2 10,1 13,0 14,2 6 3 8 5 ENE 1029,0 21 0 0,0
21.10.2018 22:00:00 7,3 4,1 3,2 11,3 13,1 14,2 5 3 6 4 ENE 1028,6 28 0 0,0
21.10.2018 21:00:00 8,1 3,9 7,7 11,8 13,2 14,3 1 1 6 3 WSW 1028,7 25 0 0,0
21.10.2018 20:00:00 7,9 3,5 7,3 11,9 13,3 14,3 2 1 5 3 SW 1028,5 36 0 0,0
21.10.2018 19:00:00 7,7 3,8 3,9 12,6 13,2 14,3 0 0 5 3 N 1028,5 39 0 0,0
21.10.2018 18:00:00 11,1 3,4 8,0 14,3 13,1 14,3 4 2 8 4 E 1027,6 49 50 0,0
21.10.2018 17:00:00 12,6 3,3 13,2 15,7 13,0 14,3 6 4 16 9 ENE 1027,5 42 60 0,0
21.10.2018 16:00:00 13,3 3,0 15,2 15,7 12,8 14,3 6 4 13 7 NNW 1027,7 65 22 0,0
21.10.2018 15:00:00 13,1 2,7 14,1 16,9 12,5 14,3 8 4 20 11 NE 1028,1 38 19 0,0
21.10.2018 14:00:00 13,9 2,9 17,7 16,6 12,3 14,3 10 5 18 10 ENE 1028,1 19 30 0,0
21.10.2018 13:00:00 13,6 2,6 17,9 16,4 12,1 14,3 7 4 16 9 ENE 1028,4 29 60 0,0
21.10.2018 12:00:00 12,7 3,5 15,1 14,5 12,0 14,3 6 4 17 9 ENE 1028,8 29 60 0,0
21.10.2018 11:00:00 11,8 3,5 13,2 12,5 12,0 14,3 4 2 8 5 E 1029,4 23 60 0,0
21.10.2018 10:00:00 9,8 5,2 10,5 10,3 12,0 14,3 3 2 7 4 WSW 1029,5 13 24 0,0
21.10.2018 09:00:00 6,6 4,7 7,4 9,1 12,1 14,3 2 1 10 5 E 1029,7 6 12 0,0
21.10.2018 08:00:00 6,1 5,0 4,8 9,4 12,2 14,3 4 2 5 3 S 1029,1 4,9 0 0,0
21.10.2018 07:00:00 7,4 5,0 5,9 9,8 12,3 14,3 3 1 6 3 SSW 1028,8 9 0 0,0
21.10.2018 06:00:00 8,2 4,8 6,2 9,9 12,4 14,3 4 2 6 3 NW 1028,6 12 0 0,0
21.10.2018 05:00:00 8,2 5,0 6,6 9,9 12,5 14,4 5 3 11 6 W 1028,4 10 0 0,0
21.10.2018 04:00:00 7,4 5,7 6,6 9,9 12,6 14,4 6 3 8 5 SW 1028,2 6 0 0,0
21.10.2018 03:00:00 7,0 5,8 5,3 9,9 12,7 14,4 0 0 7 4 N 1028,6 5 0 0,0
21.10.2018 02:00:00 7,6 5,8 6,1 10,2 12,8 14,4 3 2 6 3 SE 1028,7 5 0 0,0
21.10.2018 01:00:00 8,2 6,3 5,4 10,5 12,9 14,4 3 2 9 5 SSW 1028,6 5 0 0,0
21.10.2018 00:00:00 7,9 6,0 6,2 10,8 13,0 14,4 6 3 12 7 SW 1029,2 4,9 0 0,0
20.10.2018 23:00:00 8,1 6,2 6,4 11,0 13,1 14,4 5 3 9 5 WSW 1029,1 5 0 0,0
20.10.2018 22:00:00 8,5 6,1 6,1 11,3 13,2 14,4 2 1 10 5 W 1029,0 7 0 0,0
20.10.2018 21:00:00 8,5 5,9 6,9 11,6 13,2 14,4 5 3 7 4 SW 1029,1 7 0 0,0
20.10.2018 20:00:00 7,7 4,1 6,0 12,0 13,3 14,4 0 0 8 4 N 1029,0 9 0 0,0
20.10.2018 19:00:00 9,8 6,5 5,9 13,1 13,2 14,4 3 1 6 4 SSW 1028,2 9 0 0,0
20.10.2018 18:00:00 13,4 6,4 8,8 14,7 13,0 14,4 5 3 14 7 W 1027,3 12 15 0,0
20.10.2018 17:00:00 15,1 5,7 15,5 15,9 12,8 14,4 9 5 20 11 NW 1027,4 14 46 0,0
20.10.2018 16:00:00 15,5 5,1 16,8 16,6 12,6 14,4 7 4 16 9 NNW 1027,2 14 60 0,0
20.10.2018 15:00:00 14,5 8,5 17,4 16,1 12,4 14,4 5 3 11 6 SSW 1027,9 4,3 60 0,0
20.10.2018 14:00:00 12,7 8,7 14,4 14,0 12,3 14,4 4 2 15 8 W 1028,5 3,6 10 0,0
20.10.2018 13:00:00 11,7 8,8 12,9 13,8 12,2 14,4 11 6 16 9 WSW 1028,9 3,0 0 0,0
20.10.2018 12:00:00 11,7 8,3 14,5 12,9 12,1 14,5 8 5 16 9 WSW 1028,8 3,1 8 0,0
20.10.2018 11:00:00 9,7 8,0 11,3 11,2 12,1 14,5 7 4 15 8 SSW 1028,7 2,0 0 0,0
20.10.2018 10:00:00 8,5 7,2 8,9 10,4 12,2 14,5 6 3 9 5 WSW 1028,7 1,8 0 0,0
20.10.2018 09:00:00 7,3 6,2 7,9 9,7 12,2 14,5 4 2 5 3 WNW 1028,1 1,9 0 0,0
20.10.2018 08:00:00 6,2 5,6 6,1 9,3 12,3 14,5 2 1 5 3 SW 1028,0 1,7 0 0,0
20.10.2018 07:00:00 5,3 4,4 5,2 9,1 12,5 14,5 0 0 4 2 N 1027,5 1,9 0 0,0
20.10.2018 06:00:00 5,1 4,0 3,6 9,2 12,6 14,5 3 1 5 3 NW 1026,9 2,4 0 0,0
20.10.2018 05:00:00 4,7 3,8 4,8 9,1 12,7 14,5 3 1 5 3 SSW 1026,7 1,8 0 0,0
20.10.2018 04:00:00 4,6 4,3 4,4 9,1 12,9 14,5 3 2 6 3 S 1026,4 1,3 0 0,0
20.10.2018 03:00:00 4,5 4,4 2,0 9,1 13,1 14,5 3 2 7 4 W 1026,3 0,9 0 0,0
20.10.2018 02:00:00 3,5 3,0 1,5 9,5 13,3 14,5 3 2 5 3 WNW 1026,6 0,2 0 0,0
20.10.2018 01:00:00 4,5 3,6 2,1 10,0 13,4 14,5 4 2 5 3 SW 1026,2 1,9 0 0,0
20.10.2018 00:00:00 5,7 5,3 2,8 10,5 13,6 14,5 4 2 6 3 S 1025,6 2,1 0 0,0
19.10.2018 23:00:00 6,8 6,0 3,4 11,1 13,7 14,5 5 3 6 3 SW 1025,2 2,8 0 0,0
19.10.2018 22:00:00 8,1 7,2 5,4 11,7 13,8 14,5 3 1 5 3 W 1024,7 2,7 0 0,0
19.10.2018 21:00:00 9,5 8,2 5,7 12,4 13,9 14,5 4 2 5 3 SW 1023,8 3,2 0 0,0
19.10.2018 20:00:00 10,2 7,6 6,9 13,4 13,9 14,5 2 1 7 4 N 1023,4 4,1 0 0,0
19.10.2018 19:00:00 13,1 8,1 9,4 14,6 13,8 14,5 6 4 10 6 NNE 1022,3 5 0 0,0
19.10.2018 18:00:00 16,0 8,3 13,3 16,2 13,6 14,6 7 4 11 6 N 1021,5 9 39 0,0
19.10.2018 17:00:00 17,3 7,9 17,8 17,6 13,4 14,6 5 3 9 5 ENE 1021,3 9 60 0,0
19.10.2018 16:00:00 17,5 8,1 19,0 18,2 13,1 14,6 4 2 13 7 NE 1021,5 8 60 0,0
19.10.2018 15:00:00 16,9 8,9 20,0 18,2 12,8 14,6 7 4 14 8 ENE 1021,6 6 60 0,0
19.10.2018 14:00:00 16,4 9,2 19,5 17,4 12,5 14,6 7 4 16 9 NE 1022,1 4,8 60 0,0
19.10.2018 13:00:00 15,2 9,1 18,3 16,0 12,3 14,6 7 4 15 8 ENE 1022,6 4,4 60 0,0
19.10.2018 12:00:00 13,8 8,5 16,3 14,2 12,2 14,6 6 3 11 6 NE 1023,3 3,9 60 0,0
19.10.2018 11:00:00 11,8 7,8 13,6 11,9 12,3 14,6 3 2 6 3 E 1023,5 3,0 60 0,0
19.10.2018 10:00:00 8,7 6,7 9,2 9,8 12,4 14,6 3 1 6 3 WSW 1023,7 2,8 60 0,0
19.10.2018 09:00:00 4,5 4,2 4,7 8,4 12,5 14,6 3 2 6 3 W 1024,0 0,9 3 0,0
19.10.2018 08:00:00 3,4 3,2 1,0 8,3 12,7 14,6 3 1 5 3 W 1023,7 0,8 0 0,0
19.10.2018 07:00:00 3,0 2,5 1,1 8,6 12,9 14,6 2 1 3 2 W 1023,3 0,3 0 0,0
19.10.2018 06:00:00 3,6 3,5 1,4 8,9 13,0 14,6 2 1 4 2 WNW 1022,9 0,1 0 0,0
19.10.2018 05:00:00 4,0 3,8 1,4 9,2 13,2 14,6 2 1 3 2 SSW 1022,8 0,1 0 0,0
19.10.2018 04:00:00 4,7 4,2 2,3 9,6 13,4 14,6 3 1 4 2 WNW 1022,7 2,3 0 0,0
19.10.2018 03:00:00 5,3 5,2 2,8 10,0 13,5 14,6 2 1 5 3 SSW 1022,4 1,2 0 0,0
19.10.2018 02:00:00 6,3 6,2 3,4 10,4 13,7 14,6 2 1 5 3 S 1022,3 1,0 0 0,0
19.10.2018 01:00:00 6,4 6,1 3,2 10,9 13,9 14,6 3 2 5 3 WNW 1022,4 2,5 0 0,0
19.10.2018 00:00:00 7,6 7,0 5,3 11,4 14,0 14,6 3 2 6 3 S 1022,3 4,8 0 0,0
18.10.2018 23:00:00 7,5 6,6 4,9 11,8 14,1 14,6 2 1 5 3 S 1022,2 4,2 0 0,0
18.10.2018 22:00:00 8,2 6,5 4,9 12,4 14,2 14,6 4 2 5 3 W 1021,7 6 0 0,0
18.10.2018 21:00:00 10,1 8,1 6,4 13,1 14,3 14,6 4 2 8 5 SSW 1020,9 7 0 0,0
18.10.2018 20:00:00 11,9 9,0 7,7 14,1 14,3 14,6 4 2 6 4 SW 1020,2 10 0 0,0
18.10.2018 19:00:00 12,8 8,4 8,3 15,3 14,2 14,6 3 2 5 3 W 1019,6 13 0 0,0
18.10.2018 18:00:00 17,3 8,9 13,2 17,0 14,0 14,7 3 2 9 5 N 1018,3 16 55 0,0
18.10.2018 17:00:00 18,6 9,0 18,9 18,4 13,7 14,7 7 4 11 6 NNW 1018,1 15 60 0,0
18.10.2018 16:00:00 19,0 9,6 22,0 18,9 13,4 14,7 4 2 10 5 E 1017,9 10 60 0,0
18.10.2018 15:00:00 18,1 8,6 20,5 19,0 13,0 14,7 4 2 7 4 NE 1018,4 10 60 0,0
18.10.2018 14:00:00 17,2 8,8 20,6 18,0 12,8 14,7 4 2 10 5 SSW 1018,7 8 60 0,0
18.10.2018 13:00:00 15,3 9,6 17,5 16,3 12,6 14,7 5 3 10 5 E 1019,6 6 60 0,0
18.10.2018 12:00:00 13,3 8,6 16,7 14,5 12,5 14,7 6 3 11 6 E 1020,3 4,8 60 0,0
18.10.2018 11:00:00 10,8 7,3 13,0 12,3 12,5 14,7 4 2 7 4 E 1020,9 4,1 60 0,0
18.10.2018 10:00:00 8,3 5,7 9,4 10,1 12,7 14,7 2 1 5 3 WNW 1021,2 4,0 60 0,0
18.10.2018 09:00:00 5,3 4,0 5,3 8,6 12,8 14,7 0 0 6 3 N 1021,4 4,6 19 0,0
18.10.2018 08:00:00 3,3 3,0 1,6 8,4 13,0 14,7 2 1 6 4 WSW 1021,1 1,4 0 0,0
18.10.2018 07:00:00 3,2 3,0 1,1 8,7 13,2 14,7 3 2 6 4 SW 1020,8 2,1 0 0,0
18.10.2018 06:00:00 2,9 2,2 1,8 9,0 13,4 14,7 4 2 5 3 WNW 1020,8 3,4 0 0,0
18.10.2018 05:00:00 3,6 3,3 1,7 9,3 13,6 14,7 2 1 3 2 W 1020,5 1,5 0 0,0
18.10.2018 04:00:00 3,7 3,3 1,9 9,7 13,7 14,7 2 1 6 3 SSW 1020,6 0,2 0 0,0
18.10.2018 03:00:00 4,5 3,7 2,1 10,1 13,9 14,7 5 3 6 3 W 1020,8 4,2 0 0,0
18.10.2018 02:00:00 4,2 3,4 2,7 10,5 14,1 14,7 5 3 6 3 WNW 1020,9 3,3 0 0,0
18.10.2018 01:00:00 6,0 5,6 2,5 11,0 14,3 14,7 0 0 6 3 N 1020,5 4,0 0 0,0
18.10.2018 00:00:00 7,1 6,1 3,8 11,6 14,5 14,7 5 3 7 4 WSW 1020,2 4,5 0 0,0
17.10.2018 23:00:00 7,8 6,5 4,5 12,2 14,6 14,7 7 4 7 4 SSW 1020,2 7 0 0,0
17.10.2018 22:00:00 8,2 6,8 5,3 12,8 14,7 14,7 3 1 5 3 SW 1020,2 7 0 0,0
17.10.2018 21:00:00 10,2 8,0 6,4 13,6 14,8 14,7 5 3 6 3 SSW 1019,3 10 0 0,0
17.10.2018 20:00:00 10,7 8,6 7,1 14,7 14,8 14,7 3 2 5 3 SSW 1019,0 9 0 0,0
17.10.2018 19:00:00 14,1 8,9 9,0 16,1 14,7 14,7 3 2 5 3 NNE 1018,3 13 5 0,0
17.10.2018 18:00:00 17,8 9,1 15,3 17,8 14,5 14,7 4 2 8 4 NE 1017,5 14 60 0,0
17.10.2018 17:00:00 19,5 8,0 20,4 19,2 14,2 14,8 6 3 11 6 E 1017,4 18 60 0,0
17.10.2018 16:00:00 19,5 7,5 21,6 19,9 13,9 14,8 5 3 10 5 E 1017,5 14 60 0,0
17.10.2018 15:00:00 19,4 8,9 22,3 19,8 13,5 14,8 5 3 13 7 E 1017,8 12 60 0,0
17.10.2018 14:00:00 18,3 9,3 21,1 18,9 13,3 14,8 4 2 10 5 E 1018,4 9 60 0,0
17.10.2018 13:00:00 16,7 8,6 19,3 17,3 13,1 14,8 3 2 9 5 E 1019,3 8 60 0,0
17.10.2018 12:00:00 15,1 8,1 16,1 14,7 13,0 14,8 0 0 6 3 N 1020,1 8 34 0,0
17.10.2018 11:00:00 12,3 8,4 13,7 13,4 13,0 14,8 3 2 6 3 E 1020,8 6 43 0,0
17.10.2018 10:00:00 11,0 6,9 11,5 11,5 13,1 14,8 0 0 3 2 N 1020,8 6 60 0,0
17.10.2018 09:00:00 7,5 5,7 7,5 10,1 13,2 14,8 0 0 4 2 N 1021,2 5 32 0,0
17.10.2018 08:00:00 6,5 5,9 4,7 10,2 13,3 14,8 3 1 5 3 N 1021,2 3,3 0 0,0
17.10.2018 07:00:00 6,8 5,9 5,7 10,4 13,4 14,8 2 1 5 3 ESE 1020,8 4,6 0 0,0

tt = Température de l'air
td = dewpoint
tt 5cm = Température de l'air 5cm
tt -5cm = Température de l'air -5cm
tt -20cm = Température de l'air -20cm
tt -100cm = Température de l'air -100cm
ff = Vitesse du vent
fx = gusts
dd = Direction du vent
ppp = reduced air pressure
vv = visibility
sd = Ensoleillement
rr = Quantités de précipitations

stations d'obs. à proximité